Location: Newark
(44.2003°N, 3.2583°E)
Time: 10:47:30
(UTC+00:00)

SR - Pass Details

Date: 26 October 2019
Orbit: 574 x 882 km, 66.7° (Epoch: 17 November)

Event Time Altitude Azimuth Distance (km) Brightness Sun altitude
Rises 07:13:29 0° 307° (NW) 3,484 ? 8.8°
Reaches altitude 10° 07:18:45 10° 268° (W) 2,536 ? 9.7°
Maximum altitude 07:19:32 10° 260° (W) 2,513 ? 9.8°
Drops below altitude 10° 07:20:18 10° 253° (WSW) 2,528 ? 9.9°
Sets 07:25:31 0° 213° (SSW) 3,414 ? 10.7°
